Location: Erp
(42.9417°N, 1.2009°E)
Time: 09:22:15
(UTC+00:00)

Cosmos 1933 Rocket - Pass Details

Date: 12 January 2026
Orbit: 599 x 624 km, 82.5° (Epoch: 17 February)

Event Time Altitude Azimuth Distance (km) Brightness Sun altitude
Rises 17:48:35 0° 3° (N) 2,905 6.8 -11.9°
Reaches altitude 10° 17:51:09 10° 17° (NNE) 1,990 5.8 -12.3°
Maximum altitude 17:54:49 25° 73° (ENE) 1,240 4.5 -13.0°
Drops below altitude 10° 17:58:27 10° 130° (SE) 1,964 5.8 -13.6°
Sets 18:00:58 0° 143° (SE) 2,859 6.8 -14.0°
